[Iaude] MPEC W76: 2023 WV1 [a=1.52,e=0.29,i=26.1,H=23.4]
    mpec at marsden.cfa.harvard.edu 
    mpec at marsden.cfa.harvard.edu
       
    Tue Nov 21 09:28:23 EST 2023
    
    
  
M.P.E.C. 2023-W76                             Issued 2023 November 21, 14:26 UT
     The Minor Planet Electronic Circulars contain information on unusual
         minor planets, routine data on comets and natural satellites,
         and occasional editorial announcements.  They are published
    on behalf of Division F of the International Astronomical Union by the
          Minor Planet Center, Smithsonian Astrophysical Observatory,
                          Cambridge, MA 02138, U.S.A.
			  
             Prepared using the Tamkin Foundation Computer Network
                              MPC at CFA.HARVARD.EDU
            URL https://www.minorplanetcenter.net/    ISSN 1523-6714
                                    2023 WV1                                    
Observations:
     K23W01V* C2023 11 18.21074500 55 07.341+40 00 20.28         21.05wXEW076F52
     K23W01V  C2023 11 18.23295100 54 54.867+40 03 17.75         20.85wXEW076F52
     K23W01V  C2023 11 18.24400200 54 48.599+40 04 45.87         20.96wXEW076F52
     K23W01V  C2023 11 18.34075800 53 53.610+40 17 29.47         21.14GVEW076F51
     K23W01V  C2023 11 18.34157500 53 53.173+40 17 35.42         21.12GVEW076F51
     K23W01V IC2023 11 18.75727900 50 11.15 +41 10 41.6          19.9 GVEW076L01
     K23W01V KC2023 11 18.76025400 50 09.43 +41 11 05.0          20.0 GVEW076L01
     K23W01V KC2023 11 18.76322300 50 07.65 +41 11 27.3          20.2 GVEW076L01
     K23W01V KC2023 11 18.86190 00 49 12.36 +41 24 00.2          20.5 GXEW076K78
     K23W01V KC2023 11 18.87911 00 49 02.66 +41 26 10.6          20.4 GXEW076K78
     K23W01V KC2023 11 18.89632 00 48 52.89 +41 28 20.1          20.3 GXEW076K78
     K23W01V KC2023 11 19.02904 00 47 38.78 +41 44 41.6          21   GVEW076204
     K23W01V KC2023 11 19.03190 00 47 37.04 +41 45 03.1                VEW076104
     K23W01V KC2023 11 19.04132 00 47 31.79 +41 46 12.6          19.7 GVEW076104
     K23W01V KC2023 11 19.04625 00 47 29.32 +41 46 47.4                VEW076204
     K23W01V KC2023 11 19.06330800 47 24.70 +41 49 17.7          21.3 GVEW076H21
     K23W01V KC2023 11 19.06889900 47 21.54 +41 49 59.8          21.6 GVEW076H21
     K23W01V KC2023 11 19.07449100 47 18.37 +41 50 41.9          21.2 GVEW076H21
     K23W01V KC2023 11 19.08017400 47 15.13 +41 51 24.2          21.6 GVEW076H21
     K23W01V 1C2023 11 21.26055200 27 25.273+46 02 06.35         22.00GVEW076T12
     K23W01V 1C2023 11 21.26325200 27 23.750+46 02 23.20         22.16GVEW076T12
     K23W01V 1C2023 11 21.26623200 27 22.038+46 02 42.64         21.33GVEW076T12
Observer details:
104 San Marcello Pistoiese.  Observers P. Bacci, M. Maestripieri.  Measurer P.
    Bacci.  0.60-m f/4 reflector + CCD.
204 Schiaparelli Observatory.  Observers L. Buzzi, G. Galli.  0.84-m f/3.5
    reflector + CCD.
F51 Pan-STARRS 1, Haleakala.  Observers J. Herman, T. Lowe, P. Minguez, A.
    Schultz, I. Smith.  Measurers K. Chambers, T. de Boer, J. Fairlamb, H.
    Gao, M. Huber, C.-C. Lin, E. Magnier, Y. Ramanjooloo, R. Wainscoat, R.
    Weryk.  1.8-m Ritchey-Chretien + CCD.
F52 Pan-STARRS 2, Haleakala.  Observers J. Herman, T. Lowe, P. Minguez, A.
    Schultz, I. Smith.  Measurers K. Chambers, T. de Boer, J. Fairlamb, H.
    Gao, M. Huber, C.-C. Lin, E. Magnier, Y. Ramanjooloo, R. Wainscoat, R.
    Weryk.  1.8-m Ritchey-Chretien + CCD.
H21 Astronomical Research Observatory, Westfield.  Observer R. Holmes.
    Measurers T. Linder, R. Holmes, L. Horn.  0.76-m f/3.0 astrograph + CCD.
K78 iota Scorpii Observatory, La Spezia.  Observers G. Scarfi, P. Boongerd.
    0.40-m f/6.1 reflector + CCD.
L01 Visnjan Observatory, Tican.  Observers K. Korlevic, D. Pujagic.  1.0-m
    f/2.9 reflector + CCD.
T12 University of Hawaii 88-inch telescope, Maunakea.  Observer Y.
    Ramanjooloo.  Measurers R. Weryk, Y. Ramanjooloo, J. Fairlamb, R.
    Wainscoat.  2.24-m f/10.1 reflector + CCD.
Orbital elements:
2023 WV1                                                 Earth MOID = 0.1353 AU
Epoch 2023 Sept. 13.0 TT = JDT 2460200.5                MPC                     
M 309.43333              (2000.0)            P               Q                  
n   0.52579516     Peri.   38.63367     +0.17153568     -0.93637855             
a   1.5202849      Node    44.05990     +0.75861638     -0.07276537             
e   0.2912650      Incl.   26.12587     +0.62855127     +0.34336631             
P   1.87           H   23.49          G   0.15           U   8                  
Residuals in seconds of arc
231118 F52  0.3-  0.6+    231118 K78  0.5+  0.6-    231119 H21  0.1+  0.0
231118 F52  0.1+  0.0     231118 K78  0.8+  0.1+    231119 H21  0.0   0.1+
231118 F52  0.1-  0.1-    231118 K78  0.2+  0.3+    231119 H21  0.1-  0.3-
231118 F51  0.1-  0.1+    231119 204  0.1+  0.1-    231121 T12  0.3-  0.1+
231118 F51  0.2+  0.3-    231119 104  0.0   0.0     231121 T12  0.1+  0.3-
231118 L01  1.1+  0.1-    231119 104  0.6-  0.6+    231121 T12  0.2+  0.2+
231118 L01  0.5+  0.4+    231119 204  0.4+  0.3-
231118 L01  0.7-  0.2-    231119 H21  0.0   0.1-
Ephemeris:
2023 WV1                 a,e,i = 1.52, 0.29, 26                  q = 1.0775
Date    TT    R. A. (2000) Decl.     Delta      r    Elong.  Phase     V
2023 10 22    03 28 54.4 -17 45 01   0.2324  1.1862   141.5    31.5    22.0
...
2023 11 06    02 28 57.1 +07 33 57   0.1496  1.1395   171.2     7.6    20.2
...
2023 11 14    01 31 34.2 +29 37 45   0.1423  1.1191   153.9    22.9    20.6
...
2023 11 20    00 38 53.8 +43 41 54   0.1577  1.1061   135.4    38.9    21.2
2023 11 21    00 29 47.4 +45 33 52   0.1616  1.1042   132.8    41.1    21.4
2023 11 22    00 20 41.2 +47 17 19   0.1659  1.1023   130.2    43.2    21.5
...
2023 11 28    23 28 04.4 +54 59 29   0.1962  1.0923   117.9    53.0    22.1
...
2023 12 06    22 29 49.7 +60 25 38   0.2436  1.0829   107.2    60.4    22.8
...
2023 12 21    21 22 27.4 +65 03 36   0.3350  1.0778    97.1    64.9    23.6
A. U. Tomatic                (C) Copyright 2023 MPC           M.P.E.C. 2023-W76
    
    
More information about the Iaude
mailing list